Weather Roundup
Issued by NWS Corpus Christi, TX

Home | Current Version | Previous Version | Text Only | Print | Product List | Glossary On
Versions: 1 2 3 4 5 6 7 8 9 10 11 12 13 14 15 16 17 18 19 20 21 22 23 24 25 26 27 28 29 30 31 32 33 34 35 36 37 38 39 40 41 42 43 44 45 46 47 48 49 50
000
ASUS44 KCRP 220410
HRRCRP

SOUTH TEXAS REGIONAL WEATHER ROUNDUP
NATIONAL WEATHER SERVICE CORPUS CHRISTI TX
1100 PM CDT SUN SEP 21 2014


TXZ229>244-220500-
...CORPUS CHRISTI AREA OBSERVATIONS...

CITY           SKY/WX    TMP DP  RH WIND       PRES   REMARKS
CORPUS CHRISTI PTCLDY    81  72  74 E12       30.01R
NAS CORPUS CHR CLEAR     82  71  69 E17       30.00R
ROCKPORT       CLEAR     81  71  71 E12       30.01S
KINGSVILLE NAS CLEAR     76  74  93 NE7       30.01R
ALICE          CLEAR     77  73  87 NE8       30.01S
FALFURRIAS     CLEAR    N/A N/A N/A NE5       30.01R
$$

...VICTORIA AREA OBSERVATIONS...

CITY           SKY/WX    TMP DP  RH WIND       PRES   REMARKS
VICTORIA       PTCLDY    77  70  79 SE6       30.04R
BEEVILLE       FAIR      76  69  78 E6        30.03S HAZE
PLEASANTON     CLEAR     78  65  65 E5        30.06R
SAN ANTONIO    CLEAR     80  65  59 E5        30.08R
$$

...LAREDO AREA OBSERVATIONS...

CITY           SKY/WX    TMP DP  RH WIND       PRES   REMARKS
LAREDO         PTCLDY    78  73  84 E5        30.06R
COTULLA        CLOUDY    79  73  82 SE6       30.05R
DEL RIO        CLOUDY    80  72  76 CALM      30.07R
MCALLEN        HVY RAIN  79  77  94 E8        29.99R FOG
HEBBRONVILLE     N/A     76  72  86 NE6       30.05R
$$

...OTHER TEXAS OBSERVATIONS...

CITY           SKY/WX    TMP DP  RH WIND       PRES   REMARKS
BROWNSVILLE    MOCLDY    80  76  87 CALM      29.97R
HOUSTON        CLEAR     75  70  84 CALM      30.03R
COL. STATION   MOCLDY    79  68  69 NE3       30.05S
AUSTIN         PTCLDY    72  68  87 CALM      30.06S
WACO           MOCLDY    74  66  76 CALM      30.08R
FORT WORTH     MOCLDY    82  65  56 N10       30.09R
WICHITA FALLS  PTCLDY    75  62  64 NE16      30.16R
LUBBOCK        CLOUDY    68  65  90 NE9       30.26R
EL PASO        CLOUDY    74  62  66 NE13      30.17R
$$

...MARINE OBSERVATIONS...

STATION/POSITION TIME  SKY/WX   TEMP    WIND        PRES    VSBY  WAVE   SWELL
                                AIR SEA DIR/SP/G                  HT/PER HT/PER
                 (UTC)          (F)     (DEG/KT/KT) (MB)    (MI)  (FT/S) (FT/S)
PORT ARANSAS     0400            83 83   60/ 21/ 23 1016.4R
BUOY 90 E PORT A 0400            83 85   60/ 17/ 19 1015.7R         6/ 7
BUOY 45 SE BAFFI 0400            83 85   60/ 19/ 23 1014.2R         6/ 8   2/ 8
BUOY 200 E PT IS 0400            84 85   80/ 16/ 17 1014.3R         4/ 8   2/ 8
BUOY 15 E GALVES 0400            83 83   80/  6/  6 1015.9R         3/ 6   2/ 6
$$


USA.gov is the U.S. government's official web portal to all federal, state and local government web resources and services.